Вернуться в каталог

STARLINK-35819

АктивенСвязьVLEO
NORAD 66285·PAYLOAD·🇺🇸 United States

Запущен Oct 31, 2025 с Vandenberg Space Force Base

Loading…

Ближайшие Пролёты (ближайшие 24 часа)

TLE

СвежийSource: CelesTrak SupGP

Эпоха: Sep 15, 2026, 02:48 UTC

1 66285C 25247W   26258.11715278  .00015660  00000+0  46332-3 0  2588
2 66285  53.1590  28.9122 0000892  78.5207 269.6534 15.34340448    16

Отслеживайте STARLINK-35819 в реальном времени с AllMySat

Download on the App Store